Home   Weather   Durrës   Past weeks
Flag for Albania

Past Weather in Durrës, Albania — September 2017

Now
64 °F

Clear.


Feels Like: 64 °F
Forecast: 78 / 63 °F
Wind: 1 mph from North

Location: Tirana Airport

Current Time: Sep 19, 2019 at 2:59:00 am

Latest Report: Sep 19, 2019 at 2:20 am


Visibility: 5 mi

Pressure: 30.01 "Hg

Humidity: 94%

Dew Point: 63 °F

Location of DurrësLocation

September 2017 Weather in Durrës — Graph

°F

High & Low Weather Summary for September 2017

 TemperatureHumidityPressure
High93 °F (Sep 2, 1:20 pm)100% (Sep 3, 5:20 am)30.18 "Hg (Sep 3, 5:20 am)
Low46 °F (Sep 22, 6:50 am)21% (Sep 2, 12:20 pm)29.50 "Hg (Sep 11, 2:50 pm)
Average68 °F67%29.98 "Hg
* Reported Sep 1 12:20 am — Sep 30 11:50 pm, Durrës. Weather by CustomWeather, © 2019

Note: Actual official high and low records may vary slightly from our data, if they occured in-between our weather recording intervals... More about our weather records

Advertising

Durrës Weather History for September 1, 2017

Scroll right to see more
 ConditionsComfort  
Time TempWeatherWind HumidityBarometerVisibility
12:20 am
Fri, Sep 1
64 °FClear.2 mph78%30.04 "Hg10 mi
1:20 am63 °FClear.2 mph83%30.04 "Hg10 mi
2:20 am63 °FClear.2 mph83%30.04 "Hg10 mi
2:50 am61 °FClear.3 mph83%30.04 "Hg10 mi
3:50 am63 °FClear.3 mph77%30.01 "Hg10 mi
4:20 am61 °FClear.5 mph77%30.01 "Hg10 mi
4:50 am61 °FClear.5 mph77%30.01 "Hg10 mi
5:20 am61 °FClear.5 mph77%30.01 "Hg10 mi
5:50 am61 °FClear.5 mph72%30.01 "Hg10 mi
6:20 am61 °FSunny.2 mph77%30.01 "Hg10 mi
6:50 am61 °FSunny.3 mph77%30.01 "Hg10 mi
7:20 am64 °FSunny.5 mph68%30.01 "Hg10 mi
7:50 am66 °FSunny.3 mph68%30.01 "Hg10 mi
8:20 am70 °FSunny.3 mph60%30.01 "Hg10 mi
8:50 am73 °FPassing clouds.5 mph53%30.01 "HgN/A
9:20 am77 °FSunny.No wind47%30.01 "Hg10 mi
9:50 am79 °FSunny.1 mph39%30.01 "Hg10 mi
10:20 am82 °FSunny.1 mph35%29.98 "Hg10 mi
10:50 am86 °FSunny.2 mph29%29.98 "Hg10 mi
11:20 am88 °FSunny.2 mph24%29.98 "Hg10 mi
11:50 am86 °FSunny.No wind29%29.95 "Hg10 mi
12:20 pm88 °FPassing clouds.3 mph25%29.95 "HgN/A
12:50 pm88 °FPassing clouds.3 mph27%29.95 "HgN/A
1:20 pm90 °FSunny.No wind31%29.95 "Hg10 mi
1:50 pm90 °FPassing clouds.7 mph33%29.95 "HgN/A
2:20 pm88 °FPassing clouds.9 mph33%29.95 "HgN/A
2:50 pm88 °FPassing clouds.7 mph33%29.95 "HgN/A
3:50 pm88 °FPassing clouds.8 mph35%29.92 "HgN/A
4:20 pm86 °FPassing clouds.9 mph40%29.92 "HgN/A
4:50 pm86 °FSunny.8 mph40%29.92 "Hg10 mi
5:20 pm84 °FPassing clouds.8 mph40%29.92 "HgN/A
5:50 pm81 °FSunny.7 mph42%29.92 "Hg10 mi
6:20 pm79 °FSunny.6 mph45%29.92 "Hg10 mi
6:50 pm77 °FSunny.6 mph51%29.92 "Hg10 mi
7:20 pm75 °FClear.5 mph54%29.92 "Hg10 mi
7:50 pm73 °FClear.No wind57%29.92 "Hg10 mi
8:20 pm73 °FClear.2 mph57%29.92 "Hg10 mi
8:50 pm70 °FClear.2 mph69%29.92 "Hg10 mi
9:20 pm70 °FClear.2 mph69%29.92 "Hg10 mi
9:50 pm68 °FClear.2 mph73%29.92 "Hg10 mi
10:20 pm66 °FClear.2 mph78%29.95 "Hg10 mi
10:50 pm66 °FClear.2 mph78%29.95 "Hg10 mi
11:20 pm66 °FClear.2 mph78%29.95 "Hg10 mi
11:50 pm64 °FClear.1 mph83%29.95 "Hg10 mi
Weather by CustomWeather, © 2019

See weather overview